Probability
10 29 81 87 87 94 94 94 94 94 94 94 94 90 90 84 84 81 84 84 74 71 74 77 68 77 77 71 74 74 77 84 81 77 77 74 77 90 77 77 61 42 74
13 29 81 94 94 94 90 90 90 87 90 90 90 90 90 90 90 84 81 81 81 81 81 77 81 77 68 68 68 71 74 81 77 77 77 74 74 87 81 71 74 55 68
16 42 71 90 94 94 94 94 94 90 90 94 94 90 90 97 94 90 87 87 81 84 84 84 81 81 77 77 77 74 81 81 81 68 77 35 52 77 81 77 71 71 74
26 45 68 90 90 94 94 94 90 90 90 94 97 94 97 97 97 87 90 87 87 81 84 81 74 71 74 74 71 74 71 68 52 55 35 32 39 65 81 81 74 74 74
26 48 74 90 90 90 94 94 90 90 90 94 97 97 97 94 90 90 90 90 84 81 81 77 77 71 81 77 71 71 71 55 35 26 39 45 55 65 74 74 71 74 77
19 35 74 87 94 94 94 97 94 94 90 94 97 97 97 97 90 90 87 87 87 94 87 84 74 74 81 74 77 68 55 39 29 23 39 39 45 74 68 68 71 71 77
16 39 61 90 94 94 94 97 97 97 97 97 97 97 97 97 97 97 90 87 90 87 90 74 65 71 71 84 74 52 32 26 6 23 48 52 68 74 71 71 74 71 71
23 42 77 97 97 97 97 100 100 100 97 97 97 97 97 97 97 94 90 90 97 87 74 61 61 68 71 65 77 42 39 13 6 3 29 48 71 77 71 71 77 81 74
32 48 74 81 94 94 97 100 100 100 97 97 97 97 97 97 97 94 90 87 87 87 71 77 58 61 65 74 74 42 23 26 6 13 6 55 61 71 61 65 68 81 87
35 55 74 77 87 84 84 94 97 97 97 97 97 97 94 97 97 94 87 87 77 71 74 65 52 55 58 71 71 52 32 26 10 13 29 42 65 61 52 61 71 77 81
48 61 65 74 84 68 71 90 97 97 97 94 94 87 97 71 55 68 55 74 65 68 65 55 58 58 68 55 68 52 32 19 16 16 32 42 52 55 52 58 61 65 71
52 61 68 65 65 58 61 94 87 84 90 90 90 81 71 81 71 58 71 74 74 65 61 52 48 55 39 42 45 52 39 13 16 19 35 68 58 45 52 58 58 52 48
65 58 65 61 68 58 71 81 84 87 94 87 87 77 81 71 65 55 65 68 65 48 52 45 35 32 29 42 39 23 19 23 26 29 42 74 65 58 52 65 61 65 58
65 55 61 68 81 74 71 81 77 81 87 77 90 65 61 65 61 52 65 55 65 58 61 39 58 42 35 32 29 16 13 10 32 26 65 68 71 58 48 55 52 52 58
68 68 74 74 77 87 94 87 74 71 68 77 87 71 68 58 61 58 74 65 42 58 55 58 55 52 52 48 39 26 23 13 10 23 65 61 61 65 52 48 45 39 39
74 74 77 74 87 97 94 90 84 68 94 77 74 65 74 65 71 68 65 74 48 58 58 58 45 61 55 58 42 42 42 19 26 23 32 55 48 58 58 48 42 48 42
71 74 84 84 94 94 90 87 74 71 81 81 87 84 77 77 90 90 68 71 61 65 71 61 52 48 61 55 55 42 39 48 26 23 23 39 52 48 55 52 52 45 52
81 87 90 87 97 97 97 97 77 77 81 84 87 94 77 84 84 90 77 65 74 65 61 55 48 45 52 52 55 48 45 58 52 32 29 32 42 19 55 61 58 58 48
90 97 97 94 94 97 97 97 90 90 90 84 77 81 84 87 87 84 81 84 84 65 58 45 52 55 58 55 52 58 39 52 58 29 29 32 35 42 42 68 61 71 58
97 97 97 97 97 97 97 97 97 94 90 90 81 84 84 87 84 84 81 87 77 55 71 71 77 71 58 58 16 32 39 39 39 39 32 23 42 35 29 29 61 58 65
97 97 97 97 97 97 97 97 97 97 90 90 84 77 77 84 81 77 65 90 81 65 77 61 65 61 45 55 39 48 32 32 35 42 42 32 29 39 39 48 55 55 58
97 97 97 97 97 97 90 94 94 94 87 90 84 84 81 74 81 65 77 84 81 90 84 77 84 61 45 42 48 45 45 29 58 10 32 39 29 29 32 42 55 65 58
97 97 97 97 97 97 94 90 90 90 90 90 84 87 77 81 81 81 81 84 81 74 77 87 90 71 71 45 39 45 42 35 42 26 35 19 48 45 39 42 48 55 61
97 97 97 97 97 97 90 87 87 87 84 90 90 84 84 77 77 81 87 84 81 74 87 74 55 77 84 55 55 61 32 42 35 39 19 23 42 55 39 23 19 45 48
97 97 97 97 97 94 87 84 87 81 90 84 87 84 81 74 81 77 87 87 90 81 84 87 87 87 74 65 48 45 42 48 35 26 23 29 32 29 32 39 42 45 39
97 97 97 100 97 94 90 84 87 84 84 84 81 77 81 77 74 74 87 87 90 81 81 90 94 84 84 74 65 39 48 42 45 35 32 35 42 32 26 35 32 29 32
Height
5897 5896 5895 5895 5895 5894 5894 5893 5893 5892 5892 5892 5892 5892 5892 5892 5892 5892 5892 5892 5892 5892 5892 5892 5893 5894 5894 5894 5895 5895 5895 5895 5895 5896 5896 5896 5896 5896 5896 5896 5896 5896 5896
5898 5897 5897 5897 5896 5896 5895 5895 5894 5894 5894 5894 5894 5894 5894 5894 5894 5894 5894 5893 5894 5894 5894 5894 5894 5895 5895 5896 5896 5896 5896 5896 5897 5897 5897 5897 5897 5897 5897 5897 5897 5897 5897
5900 5899 5899 5898 5898 5897 5897 5896 5896 5896 5895 5895 5895 5895 5895 5895 5895 5895 5895 5895 5895 5895 5896 5896 5896 5896 5897 5897 5898 5898 5898 5898 5898 5898 5898 5898 5898 5898 5898 5898 5898 5898 5898
5901 5900 5900 5900 5899 5899 5898 5898 5898 5897 5897 5897 5897 5897 5897 5897 5897 5897 5897 5897 5897 5897 5897 5897 5898 5898 5898 5899 5899 5899 5899 5899 5899 5899 5899 5899 5899 5899 5899 5899 5899 5899 5899
5902 5902 5901 5901 5900 5900 5899 5899 5899 5899 5898 5898 5898 5898 5898 5898 5898 5898 5898 5898 5898 5899 5899 5899 5899 5898 5899 5899 5900 5900 5900 5900 5900 5900 5900 5900 5900 5900 5900 5900 5900 5900 5900
5904 5903 5902 5902 5902 5901 5901 5900 5900 5900 5899 5899 5899 5899 5899 5899 5899 5900 5900 5899 5900 5900 5900 5900 5900 5900 5899 5900 5900 5901 5901 5901 5901 5901 5901 5901 5901 5901 5901 5901 5901 5901 5901
5905 5904 5903 5903 5903 5902 5901 5901 5901 5901 5900 5900 5900 5900 5900 5901 5901 5901 5901 5901 5901 5901 5901 5901 5901 5901 5901 5901 5901 5902 5902 5902 5902 5901 5902 5902 5902 5902 5902 5902 5902 5902 5901
5906 5905 5905 5904 5904 5903 5903 5902 5902 5902 5901 5901 5901 5902 5902 5902 5902 5902 5902 5902 5902 5902 5902 5902 5901 5902 5902 5902 5902 5902 5902 5902 5902 5902 5902 5902 5902 5902 5903 5902 5902 5902 5902
5907 5906 5906 5905 5905 5904 5904 5903 5903 5903 5903 5902 5903 5903 5903 5903 5903 5903 5903 5903 5903 5903 5903 5903 5902 5903 5903 5903 5903 5902 5903 5903 5903 5903 5903 5903 5903 5903 5903 5903 5903 5903 5902
5908 5908 5907 5906 5906 5905 5905 5904 5904 5904 5904 5904 5904 5904 5904 5904 5904 5904 5904 5904 5904 5904 5904 5904 5903 5904 5904 5904 5903 5903 5903 5903 5903 5903 5903 5903 5903 5903 5903 5903 5903 5903 5902
5909 5909 5908 5907 5907 5906 5906 5905 5905 5905 5905 5905 5905 5905 5905 5905 5905 5905 5904 5905 5905 5905 5905 5905 5904 5904 5904 5904 5904 5904 5904 5904 5904 5904 5904 5904 5904 5904 5903 5903 5903 5902 5902
5910 5910 5909 5908 5908 5907 5907 5906 5906 5906 5905 5905 5906 5906 5906 5905 5905 5905 5905 5905 5905 5906 5906 5906 5905 5905 5905 5905 5905 5904 5904 5904 5904 5904 5904 5904 5904 5904 5903 5903 5903 5902 5902
5911 5910 5910 5909 5909 5908 5908 5907 5907 5906 5906 5906 5906 5906 5906 5906 5906 5906 5906 5906 5906 5906 5906 5906 5906 5906 5906 5906 5906 5905 5905 5905 5905 5905 5904 5904 5904 5904 5904 5903 5903 5903 5902
5911 5911 5910 5910 5909 5909 5908 5908 5907 5907 5907 5907 5906 5906 5907 5907 5907 5907 5907 5906 5906 5906 5906 5906 5906 5906 5906 5906 5906 5906 5906 5905 5905 5905 5905 5904 5905 5904 5904 5904 5903 5903 5902
5912 5911 5911 5910 5910 5909 5908 5908 5908 5907 5907 5907 5907 5907 5907 5907 5907 5907 5907 5907 5907 5907 5907 5907 5907 5907 5907 5907 5907 5906 5906 5906 5905 5905 5905 5905 5905 5904 5904 5904 5903 5903 5902
5912 5912 5911 5910 5910 5909 5909 5908 5908 5907 5907 5907 5907 5906 5907 5907 5907 5907 5907 5907 5907 5907 5907 5907 5907 5907 5907 5907 5907 5907 5906 5906 5906 5905 5905 5905 5904 5904 5904 5904 5903 5903 5903
5912 5912 5911 5910 5910 5909 5908 5908 5907 5907 5907 5906 5906 5906 5906 5906 5906 5906 5907 5907 5907 5907 5907 5907 5907 5907 5907 5907 5907 5907 5907 5906 5906 5905 5905 5905 5904 5904 5904 5904 5904 5903 5903
5912 5912 5911 5910 5909 5908 5908 5907 5906 5906 5906 5906 5905 5905 5905 5906 5906 5906 5907 5907 5907 5907 5907 5907 5907 5907 5907 5907 5907 5907 5907 5906 5906 5905 5905 5905 5904 5904 5904 5904 5904 5903 5903
5912 5911 5910 5910 5909 5908 5907 5906 5906 5905 5905 5905 5905 5905 5905 5905 5905 5906 5906 5906 5907 5907 5907 5907 5907 5907 5907 5907 5907 5907 5907 5906 5906 5905 5905 5905 5904 5904 5904 5904 5903 5903 5903
5911 5911 5910 5909 5908 5907 5906 5905 5905 5904 5904 5904 5904 5904 5904 5904 5904 5904 5905 5906 5906 5906 5906 5906 5907 5907 5907 5907 5907 5907 5906 5906 5906 5905 5905 5905 5904 5904 5904 5903 5903 5903 5903
5910 5910 5909 5908 5907 5906 5905 5904 5904 5903 5903 5903 5903 5902 5902 5903 5903 5903 5904 5905 5905 5906 5906 5906 5906 5906 5907 5906 5906 5906 5906 5906 5905 5905 5905 5905 5904 5904 5904 5903 5903 5903 5902
5909 5908 5908 5906 5906 5905 5904 5903 5902 5902 5902 5901 5901 5901 5901 5901 5901 5902 5903 5904 5904 5905 5905 5906 5906 5906 5906 5906 5906 5906 5905 5906 5905 5905 5904 5904 5904 5904 5903 5903 5903 5902 5902
5908 5907 5906 5905 5905 5904 5903 5901 5901 5900 5900 5900 5900 5900 5900 5900 5900 5900 5901 5902 5903 5904 5904 5905 5905 5905 5905 5905 5905 5905 5905 5904 5904 5904 5904 5903 5903 5903 5903 5902 5902 5902 5901
5906 5905 5905 5904 5903 5902 5901 5900 5899 5898 5898 5899 5899 5899 5899 5899 5899 5899 5900 5901 5902 5902 5903 5903 5904 5904 5904 5904 5904 5904 5904 5903 5903 5903 5903 5902 5902 5902 5901 5901 5901 5900 5900
5904 5903 5903 5902 5901 5900 5899 5898 5898 5897 5897 5897 5897 5897 5897 5897 5897 5898 5899 5899 5900 5901 5901 5902 5902 5903 5903 5903 5903 5903 5902 5902 5901 5901 5901 5901 5900 5900 5900 5900 5899 5899 5898
5901 5901 5901 5900 5899 5899 5897 5896 5896 5895 5895 5895 5895 5895 5895 5895 5896 5896 5897 5897 5898 5898 5899 5900 5900 5901 5901 5901 5901 5901 5901 5900 5900 5899 5899 5899 5898 5898 5898 5898 5897 5897 5897
Wind_Speed
11 11 10 9 10 10 11 11 13 13 13 14 14 14 13 13 12 12 11 11 11 10 11 10 10 10 9 9 8 8 8 7 6 6 7 7 7 7 7 6 6 6 6
10 10 9 9 9 9 10 11 11 12 13 13 13 13 13 12 12 11 11 11 10 10 10 10 10 10 9 9 9 8 7 6 6 6 6 6 6 6 6 6 5 5 5
9 9 8 7 8 8 9 9 10 11 12 12 12 11 11 12 11 11 10 10 10 10 10 10 9 8 8 8 8 7 6 6 5 6 5 5 5 5 4 4 5 4 4
9 9 7 6 7 7 8 8 9 10 10 11 11 11 11 11 10 10 10 10 9 9 9 9 8 7 7 7 7 6 6 5 5 5 4 4 4 3 3 4 4 4 4
9 8 7 6 6 6 7 8 8 8 9 10 11 11 10 10 10 9 9 9 8 8 8 7 7 6 6 6 6 6 5 5 4 4 4 3 3 3 3 3 4 4 4
8 8 7 5 5 6 7 7 8 8 9 10 10 10 10 10 10 9 9 8 7 7 7 7 6 6 6 6 5 5 5 4 4 4 3 3 3 3 3 3 3 3 3
8 7 7 6 5 5 6 6 7 7 9 10 10 9 10 9 9 8 8 8 7 6 6 6 5 5 5 5 4 3 3 4 4 4 3 3 3 2 2 3 2 3 3
7 7 6 6 5 5 5 5 6 6 8 9 9 8 8 8 8 7 7 7 6 6 6 5 5 5 5 4 3 3 3 3 3 2 2 2 2 2 2 2 2 2 2
7 6 5 5 5 5 5 5 6 6 7 8 8 8 7 7 7 6 6 6 6 5 5 4 4 4 4 4 4 3 2 2 2 2 2 1 1 1 2 1 1 2 2
6 5 5 4 4 4 4 5 6 6 6 6 6 6 6 6 6 6 5 5 5 5 4 4 4 4 3 4 4 4 4 3 3 2 2 1 1 1 1 1 1 1 1
6 5 4 4 4 4 4 4 5 5 5 5 5 5 5 5 5 5 5 5 4 4 4 4 4 3 4 3 3 4 4 3 3 3 2 2 1 1 0 0 0 1 1
5 4 4 4 4 3 3 3 4 4 4 4 4 4 4 4 4 4 4 4 4 4 4 4 4 3 3 3 3 3 3 3 3 2 2 2 1 1 0 0 1 1 1
4 4 4 4 3 3 3 2 2 3 3 3 3 3 3 3 3 3 3 3 3 3 3 3 3 3 3 3 3 3 3 3 2 2 2 2 2 1 1 1 1 1 1
4 3 4 4 3 3 2 1 1 1 1 1 2 2 2 3 3 3 2 2 2 2 2 2 2 2 2 2 2 2 2 2 2 2 1 1 1 1 1 1 1 2 2
3 3 3 3 3 2 2 1 0 0 1 1 1 2 2 2 3 2 2 2 2 1 1 1 1 1 1 1 1 1 2 2 1 1 1 1 1 1 1 2 1 1 2
3 3 4 3 3 3 3 2 1 2 2 2 2 3 3 2 3 3 2 2 1 1 1 2 1 1 0 1 1 1 1 2 1 1 1 1 1 1 1 1 1 1 2
4 4 4 4 4 4 4 3 3 3 3 3 3 3 4 4 3 3 3 2 1 1 1 2 2 2 1 1 1 1 1 1 1 1 1 1 1 1 1 1 1 1 2
4 4 5 5 5 5 5 5 4 4 4 4 4 4 4 4 4 4 4 3 2 2 1 1 2 2 2 2 1 1 1 1 1 2 1 1 1 1 1 1 1 1 2
5 5 6 6 6 6 6 6 5 5 5 5 5 4 4 5 5 5 5 4 3 3 2 2 2 3 3 2 2 2 1 1 2 2 2 2 1 1 1 1 1 1 1
6 7 7 6 6 6 6 6 6 6 6 5 5 5 5 5 6 6 5 5 5 4 3 3 2 3 3 3 3 3 3 3 2 2 2 2 1 1 2 2 2 2 1
8 8 8 8 7 7 7 7 7 7 7 6 6 6 5 5 6 6 7 6 6 5 4 4 3 3 3 3 3 4 4 4 3 3 2 2 2 3 3 2 2 2 2
9 9 9 9 9 9 8 8 8 8 7 7 6 6 5 5 7 7 7 7 7 6 5 5 5 4 4 4 4 4 4 4 4 4 4 4 4 4 4 4 4 4 3
10 10 10 10 10 10 9 8 8 8 8 7 7 7 7 7 7 8 8 8 8 7 7 6 6 5 5 5 5 5 5 5 6 5 5 5 5 5 5 5 5 5 4
11 11 11 11 11 11 10 9 9 9 9 8 8 8 8 8 8 9 9 9 9 9 8 8 7 6 6 6 6 6 6 6 6 7 7 6 6 6 6 6 6 6 6
14 13 12 12 11 11 11 11 11 11 11 10 9 9 9 9 9 10 10 10 10 10 9 9 8 8 7 7 7 7 7 7 8 8 8 7 7 7 7 7 7 7 7
15 14 12 12 12 11 10 10 11 12 12 12 11 10 10 10 9 10 10 10 10 10 10 9 10 9 9 8 8 8 8 8 9 9 9 9 9 8 8 9 9 9 9
Wind_Direction
76 76 77 85 88 89 93 96 98 96 96 93 92 93 93 94 95 96 98 97 96 96 92 92 97 96 99 99 103 102 103 104 104 96 99 99 104 105 102 101 100 100 99
74 76 80 84 89 93 96 99 99 98 96 94 93 92 93 93 94 95 95 93 94 95 93 92 95 96 97 99 100 99 101 104 101 99 100 100 103 108 102 98 99 99 97
71 74 80 86 92 97 97 99 102 101 98 96 95 94 93 94 93 92 93 93 95 96 94 94 93 95 98 100 98 100 100 97 95 98 101 103 107 113 98 96 100 101 102
68 72 80 88 96 104 106 105 103 101 99 99 98 97 95 96 96 94 96 97 98 96 93 94 94 95 101 104 100 101 96 96 92 98 100 103 110 110 103 105 103 104 105
67 69 77 90 100 111 110 108 107 107 105 104 102 100 98 99 99 99 100 102 101 99 98 94 93 96 103 108 103 101 97 100 102 99 101 102 107 104 100 105 105 108 103
64 67 74 82 96 109 113 112 109 110 112 108 105 102 101 101 102 103 101 104 101 98 98 98 101 100 100 105 103 100 100 109 113 108 112 101 98 100 95 99 107 103 98
62 63 69 73 86 100 103 107 111 113 114 110 106 103 103 105 105 103 101 100 97 97 99 97 98 105 104 106 100 107 108 115 114 111 115 99 99 91 98 104 101 94 87
60 63 66 70 80 94 100 108 115 116 113 109 106 105 105 102 100 100 99 99 97 96 102 99 96 94 96 99 98 98 102 102 106 119 125 106 105 104 105 100 95 88 81
58 61 63 72 81 84 99 111 116 116 114 112 109 108 107 106 103 103 102 102 101 100 100 95 95 92 94 93 95 97 94 97 99 102 110 90 81 117 118 99 81 73 66
57 58 59 66 74 79 93 108 114 117 115 116 115 113 111 113 110 107 104 102 101 103 100 97 95 95 93 86 87 83 83 85 85 91 88 70 69 100 124 114 85 58 43
55 58 62 62 71 81 96 110 111 112 111 110 116 115 115 118 115 112 109 109 107 102 100 98 99 100 91 88 78 73 83 76 67 78 74 65 72 93 100 81 29 38 14
52 55 59 61 64 75 91 114 114 114 113 110 115 121 122 128 127 122 118 115 109 104 104 106 102 103 93 87 77 76 75 69 61 70 71 63 62 67 52 345 10 18 2
48 51 53 54 52 67 84 108 117 123 123 116 122 127 128 132 141 137 127 116 106 103 99 100 103 100 91 84 81 70 64 60 50 56 66 70 67 63 37 341 10 9 1
41 41 36 31 40 54 65 69 108 131 135 131 136 139 140 148 151 147 139 135 126 112 102 99 96 89 97 82 71 61 56 52 50 54 56 61 43 32 27 15 19 9 358
19 20 15 25 31 35 32 26 36 249 243 222 203 198 184 174 174 165 153 161 159 153 153 154 144 85 51 62 72 56 46 48 47 54 51 34 23 36 45 25 30 11 10
7 9 6 2 5 1 356 352 331 285 271 268 257 217 210 199 194 200 199 195 190 190 188 189 193 185 112 55 44 40 31 43 48 49 46 34 21 20 20 32 59 48 41
352 356 351 344 341 336 336 332 318 295 283 282 272 236 223 216 210 213 214 228 227 233 207 200 215 220 217 233 307 338 16 34 14 26 25 24 26 26 19 20 16 34 45
340 344 341 334 329 324 325 326 319 308 295 291 280 258 235 226 223 225 235 239 242 259 244 208 212 235 244 249 267 282 334 347 334 343 343 326 298 305 315 333 347 20 22
318 325 328 326 321 320 315 313 313 308 298 290 288 272 246 230 232 233 238 234 237 246 245 232 227 242 245 241 254 266 288 306 318 319 318 310 300 322 308 318 326 333 351
311 315 313 313 312 315 309 299 299 299 292 284 278 272 252 239 235 231 234 236 236 241 246 250 243 245 243 248 262 278 288 294 301 310 303 292 284 298 296 299 304 294 310
303 309 310 301 307 310 306 296 293 294 288 281 276 271 252 243 237 232 232 238 238 240 243 248 239 242 251 264 275 283 288 291 296 301 298 285 273 276 283 290 292 289 288
294 301 305 302 302 303 303 293 292 294 288 280 272 262 249 247 240 235 235 235 236 239 243 249 251 254 264 273 277 280 282 287 290 293 290 284 278 276 278 283 283 287 280
291 294 299 299 300 300 302 298 290 284 284 277 264 258 254 252 247 244 241 239 238 240 245 251 258 263 267 274 277 279 280 285 287 288 290 285 279 278 278 282 281 277 275
284 290 295 298 298 299 297 294 291 283 279 276 269 262 262 261 253 249 247 247 246 245 249 253 256 262 266 275 279 278 280 284 284 284 283 285 282 279 279 277 278 273 273
281 285 289 290 295 297 300 293 286 284 281 275 271 270 265 262 260 256 254 253 251 250 252 255 255 259 264 273 279 279 278 278 278 278 280 282 282 280 278 275 274 272 269
278 280 282 286 292 294 296 294 286 284 284 279 270 270 268 264 261 259 255 254 255 252 252 254 255 257 264 269 273 277 278 277 275 272 275 280 281 281 281 278 274 270 269